Flag for Germany Weather past 2 weeks in Backnang, Baden-Württemberg, Germany

Now
72 °F

Sunny.


Feels Like: 77 °F
Forecast: 64 / 95 °F
Wind: 5 mph from West

Location: Oehringen

Current Time: Jul 6, 2015 at 10:14:34 AM

Latest Report: Jul 6, 2015 at 10:00 AM


Visibility: 28 mi

Pressure: 30.19 "Hg

Humidity: 56%

Dew point: 55 °F

Location of BacknangLocation

Historic Weather in Backnang — Graph

°F

Backnang temperature yesterday

Maximum temperature yesterday: 100 °F (at 5:00 PM)
Minimum temperature yesterday: 70 °F (at 5:00 AM)
Average temperature yesterday: 86 °F

Past Weeks' High & Low Weather Summary

 TemperatureHumidityPressure
High100 °F (Jul 5, 5:00 PM)98% (Jun 27, 11:00 AM)30.24 "Hg (Jun 27, 11:00 AM)
Low49 °F (Jun 23, 7:00 AM)21% (Jul 5, 3:00 PM)29.75 "Hg (Jun 23, 2:00 AM)
Average70 °F64%30.08 "Hg
* Reported Jun 21 9:00 AM — Jul 6 9:00 AM, Backnang, Weather by CustomWeather, © 2015

Note: Actual official high and low records may vary slightly from our data, if they occured in-between our weather recording intervals... More about our weather records

Advertising

Backnang weather history for previous 24 hours

 ConditionsComfort  
Time TempWeatherWind HumidityBarometerVisibility
9:00 AM
Mon, Jul 6
70 °FOvercast.3 mph62%30.20 "Hg22 mi
8:00 AM67 °FPartly sunny.5 mph71%30.19 "Hg22 mi
7:00 AM67 °FOvercast.5 mph74%30.18 "Hg19 mi
5:00 AM71 °FOvercast.3 mph78%30.11 "Hg11 mi
4:00 AM73 °FOvercast.6 mph74%30.08 "Hg11 mi
3:00 AM74 °FOvercast.3 mph75%30.06 "Hg10 mi
2:00 AM77 °FPassing clouds.2 mph66%30.03 "Hg12 mi
1:00 AM79 °FPassing clouds.3 mph60%29.99 "Hg17 mi
12:00 AM82 °FClear.6 mph51%29.93 "Hg18 mi
11:00 PM
Sun, Jul 5
84 °FPassing clouds.3 mph53%29.87 "Hg15 mi
10:00 PM88 °FPassing clouds.1 mph47%29.85 "Hg15 mi
9:00 PM92 °FSunny.1 mph40%29.82 "Hg16 mi
8:00 PM95 °FSunny.3 mph33%29.82 "Hg17 mi
7:00 PM98 °FSunny.3 mph28%29.83 "Hg17 mi
6:00 PM99 °FSunny.5 mph25%29.84 "Hg25 mi
5:00 PM100 °FSunny.3 mph22%29.86 "Hg19 mi
4:00 PM100 °FSunny.3 mph22%29.88 "Hg17 mi
3:00 PM100 °FSunny.3 mph21%29.91 "Hg19 mi
2:00 PM99 °FSunny.3 mph23%29.93 "Hg25 mi
1:00 PM94 °FSunny.2 mph34%29.95 "Hg14 mi
12:00 PM93 °FSunny.2 mph39%29.97 "Hg15 mi
11:00 AM90 °FSunny.1 mph39%29.99 "Hg14 mi
10:00 AM85 °FSunny.1 mph47%30.01 "Hg14 mi
Weather by CustomWeather, © 2015

See weather overviewHow to use our weather pages